Weather in Dundee

United Kingdom     56˚28′29″N   2˚56′50″W
temp.,
°C
wind,
m/s
gust,
m/s
humid.,
%
clouds,
%
prec.,
mm/h
press.,
hPa
HPBL,
m
3 december, thu
thu300:00+2˚ssw4119258 0.1 996436
03:00+1˚ssw499293 0.2 992264
06:00sw238959 0.2 98936
09:00−1˚sw129019 0.0 98724
12:00+2˚wsw008113 0.0 986127
15:00+1˚nne118878 0.0 98522
18:00n228589 0.0 98435
21:00n3679100 0.0 983131
4 december, fri
fri400:00+1˚n51581100 0.0 981634
03:00+1˚n101894100 2.6 978736
06:00+3˚nne61494100 7.8 978628
09:00+5˚ne71594100 3.3 979813
12:00+6˚ne61495100 7.7 981755
15:00+6˚ne71590100 1.3 982973
18:00+6˚ne101693100 7.3 9851017
21:00+4˚nne3594100 2.3 989146
5 december, sat
sat500:00+5˚nne3992100 2.6 991310
03:00+5˚nne2494100 1.6 992117
06:00+4˚nne3694100 2.8 995207
09:00+3˚n359371 0.1 998132
12:00+5˚n269183 0.1 1000261
15:00+4˚nnw379266 0.1 1001177
18:00+4˚n589283 0.6 1003290
21:00+4˚n51389100 1.6 1004519
6 december, sun
sun600:00+3˚nnw4108891 1.7 1004347
03:00+3˚nw3587100 0.0 1004106
06:00+4˚nw4791100 0.0 1004215
09:00+4˚nw4792100 0.0 1004193
12:00+5˚nw5889100 0.1 1005672
15:00+4˚wnw4793100 0.2 1006275
18:00+3˚wnw359399 0.3 1007142
21:00+2˚w239427 0.0 100935
7 december, mon
mon700:00+1˚wnw349114 0.0 100978
03:00+1˚wnw33880 0.0 101055
06:00+1˚wnw34870 0.0 101096
09:00+1˚wnw22860 0.0 100927
12:00+3˚w34790 0.0 1008168
15:00+2˚wnw33836 0.0 100642
18:00wnw238553 0.0 100530
21:00wnw238259 0.0 100340